Precipitable_Water
1.23 1.38 1.39 1.40 1.44 1.39 1.38 1.39 1.41 1.39 1.35 1.31 1.25 1.19 1.10 1.05 1.23 1.35 1.29 1.15 1.13 1.09 1.07 1.11 1.22 1.34 1.42 1.31 1.19 1.19 1.12 0.96 0.85 0.85 0.76 0.81 0.85 0.84 0.79 0.80 0.89 1.11 1.21
1.30 1.44 1.38 1.38 1.43 1.41 1.33 1.32 1.33 1.32 1.25 1.20 1.15 1.09 1.06 1.11 1.23 1.00 0.95 0.93 0.85 0.84 0.92 1.01 1.00 1.05 1.06 1.08 1.09 1.04 0.93 0.81 0.73 0.72 0.78 0.81 0.86 0.86 0.89 0.87 0.95 1.09 1.19
1.30 1.41 1.38 1.37 1.38 1.39 1.36 1.36 1.33 1.26 1.21 1.12 1.03 1.03 1.06 1.14 1.29 1.10 1.07 0.98 0.85 0.81 0.87 0.93 0.97 1.00 1.04 1.04 1.00 0.97 0.91 0.87 0.84 0.86 0.91 0.98 0.90 0.93 1.01 1.22 1.14 1.13 1.19
1.37 1.37 1.36 1.36 1.35 1.40 1.42 1.40 1.37 1.31 1.17 1.05 1.00 1.00 1.06 1.15 1.28 1.21 1.15 1.02 0.82 0.78 0.79 0.84 0.91 0.98 0.99 0.98 0.97 0.92 0.91 0.92 0.90 0.86 0.93 1.09 1.10 1.13 1.26 1.41 1.31 1.31 1.34
1.39 1.37 1.45 1.36 1.40 1.41 1.42 1.40 1.40 1.36 1.20 1.08 0.99 0.99 1.11 1.19 1.29 1.24 1.15 1.04 0.83 0.82 0.81 0.81 0.84 0.90 0.94 0.97 0.95 0.96 0.97 0.96 0.93 0.85 0.92 1.11 1.25 1.28 1.32 1.28 1.23 1.24 1.22
1.38 1.46 1.43 1.45 1.44 1.46 1.44 1.41 1.38 1.32 1.23 1.13 0.98 1.19 1.25 1.23 1.29 1.23 1.13 1.04 0.87 0.88 0.89 0.86 0.89 0.92 0.94 0.95 0.97 0.98 0.97 0.95 0.93 0.87 0.80 1.04 1.24 1.29 1.21 1.18 1.15 1.14 1.12
1.37 1.52 1.47 1.49 1.42 1.44 1.45 1.45 1.41 1.31 1.24 1.11 0.98 1.32 1.31 1.30 1.28 1.19 1.15 1.08 0.91 0.95 0.96 0.95 0.92 0.95 0.97 1.00 1.00 0.99 1.01 0.98 0.92 0.83 0.80 0.81 1.04 1.25 1.20 1.15 1.07 1.02 0.97
1.37 1.57 1.49 1.49 1.39 1.43 1.45 1.48 1.43 1.32 1.24 1.09 0.98 1.23 1.33 1.27 1.22 1.18 1.13 1.07 0.96 1.01 1.01 0.99 0.97 0.97 1.00 1.01 0.99 0.99 1.01 0.96 0.91 0.83 0.81 0.82 0.86 1.09 1.19 1.10 1.04 0.99 0.93
1.38 1.49 1.47 1.51 1.39 1.42 1.49 1.51 1.42 1.36 1.29 1.13 1.02 1.19 1.20 1.13 1.14 1.17 1.13 1.04 0.98 1.05 1.02 1.00 1.00 1.02 1.03 1.04 1.01 1.00 1.02 0.98 0.91 0.85 0.85 0.92 0.95 1.06 1.22 1.14 1.08 0.97 0.93
1.39 1.39 1.39 1.44 1.38 1.40 1.53 1.49 1.46 1.41 1.33 1.19 1.08 1.05 1.12 1.12 1.12 1.15 1.14 1.07 1.04 1.07 0.99 0.96 0.95 0.98 1.00 0.99 0.99 0.96 0.94 0.92 0.88 0.91 0.96 1.06 1.08 1.22 1.30 1.18 1.10 0.99 0.91
1.31 1.32 1.36 1.38 1.38 1.39 1.49 1.47 1.46 1.39 1.35 1.26 1.15 1.03 1.01 1.03 1.04 1.09 1.11 1.09 1.06 1.09 1.02 0.98 0.94 0.94 0.92 0.92 0.92 0.93 0.91 0.87 0.84 0.90 0.99 1.11 1.19 1.33 1.38 1.28 1.16 1.05 1.00
1.22 1.28 1.36 1.38 1.38 1.40 1.43 1.43 1.43 1.35 1.33 1.32 1.23 1.12 0.99 0.97 1.01 1.05 1.06 1.05 1.08 1.15 1.12 1.06 0.97 0.91 0.85 0.82 0.81 0.79 0.78 0.78 0.80 0.87 0.96 1.06 1.19 1.34 1.39 1.31 1.21 1.14 1.10
1.32 1.32 1.33 1.32 1.36 1.37 1.36 1.39 1.38 1.31 1.30 1.31 1.27 1.19 1.05 0.93 0.95 0.98 0.98 0.99 1.07 1.14 1.12 1.12 1.09 1.03 0.93 0.87 0.84 0.82 0.78 0.75 0.78 0.84 0.93 1.01 1.08 1.28 1.36 1.27 1.19 1.17 1.17
1.27 1.34 1.38 1.40 1.35 1.32 1.35 1.38 1.37 1.30 1.26 1.26 1.26 1.21 1.11 1.03 0.93 0.90 0.91 0.94 0.98 1.06 1.10 1.14 1.12 1.10 1.08 1.04 0.98 0.93 0.91 0.88 0.84 0.87 0.93 0.98 1.05 1.18 1.23 1.21 1.17 1.15 1.15
1.25 1.27 1.29 1.29 1.30 1.25 1.25 1.33 1.36 1.32 1.28 1.26 1.23 1.20 1.15 1.06 1.00 1.01 0.95 0.97 1.07 1.14 1.18 1.20 1.17 1.15 1.13 1.12 1.10 1.08 1.07 1.02 0.96 0.93 0.97 1.00 1.06 1.12 1.18 1.21 1.23 1.20 1.17
1.36 1.31 1.33 1.31 1.30 1.25 1.21 1.24 1.23 1.27 1.25 1.23 1.18 1.14 1.15 1.14 1.14 1.16 1.14 1.05 1.08 1.16 1.18 1.17 1.14 1.12 1.14 1.18 1.16 1.16 1.14 1.09 1.04 1.02 1.03 1.03 1.05 1.10 1.15 1.19 1.23 1.27 1.25
1.42 1.40 1.34 1.34 1.36 1.31 1.27 1.22 1.21 1.24 1.24 1.21 1.20 1.18 1.18 1.21 1.20 1.19 1.15 1.13 1.13 1.14 1.16 1.16 1.15 1.18 1.19 1.22 1.19 1.22 1.19 1.17 1.12 1.09 1.07 1.10 1.13 1.15 1.17 1.22 1.25 1.28 1.30
1.45 1.38 1.39 1.38 1.35 1.34 1.31 1.29 1.27 1.28 1.27 1.26 1.26 1.26 1.22 1.20 1.22 1.20 1.17 1.17 1.22 1.20 1.16 1.15 1.17 1.22 1.23 1.21 1.18 1.19 1.21 1.21 1.20 1.20 1.16 1.13 1.13 1.15 1.17 1.22 1.27 1.31 1.32
1.48 1.42 1.34 1.36 1.36 1.35 1.38 1.36 1.33 1.29 1.27 1.30 1.30 1.28 1.27 1.24 1.23 1.20 1.18 1.19 1.24 1.22 1.22 1.22 1.25 1.27 1.20 1.19 1.17 1.17 1.17 1.17 1.18 1.23 1.22 1.22 1.19 1.17 1.19 1.22 1.24 1.26 1.28
1.39 1.40 1.38 1.34 1.39 1.39 1.39 1.38 1.35 1.30 1.31 1.33 1.30 1.27 1.27 1.25 1.25 1.23 1.22 1.23 1.25 1.23 1.23 1.26 1.23 1.25 1.21 1.14 1.10 1.07 1.10 1.09 1.09 1.12 1.12 1.15 1.16 1.14 1.14 1.16 1.16 1.18 1.21
1.17 1.20 1.24 1.25 1.28 1.30 1.27 1.20 1.19 1.14 1.20 1.21 1.24 1.25 1.26 1.25 1.26 1.22 1.18 1.18 1.23 1.17 1.15 1.15 1.13 1.09 1.06 1.13 1.00 0.88 0.88 0.95 0.95 0.94 0.96 0.97 1.01 1.05 1.07 1.06 1.05 1.06 1.11
0.84 0.99 1.03 1.11 1.16 1.19 1.17 1.16 1.15 1.13 1.15 1.19 1.24 1.26 1.30 1.28 1.26 1.22 1.16 1.13 1.13 1.11 1.10 1.08 1.09 1.01 0.96 0.99 0.86 0.83 0.68 0.72 0.80 0.85 0.86 0.87 0.87 0.91 0.95 0.97 0.96 0.96 1.00
0.81 0.85 0.87 0.87 0.92 0.98 1.06 1.09 1.09 1.10 1.09 1.05 1.08 1.13 1.15 1.13 1.21 1.26 1.25 1.24 1.22 1.19 1.08 1.08 1.06 1.00 0.87 0.94 0.95 0.83 0.64 0.56 0.67 0.80 0.82 0.84 0.87 0.89 0.92 0.94 0.95 0.96 1.05
0.84 0.86 0.85 0.84 0.83 0.84 0.83 0.82 0.80 0.76 0.70 0.70 0.70 0.71 0.73 0.75 0.75 0.77 0.80 0.86 0.88 0.91 0.89 0.90 0.95 0.93 0.91 0.81 0.89 0.90 0.88 0.83 0.69 0.66 0.85 0.86 0.87 0.84 0.79 0.81 0.84 0.82 0.80
0.83 0.81 0.80 0.79 0.79 0.79 0.79 0.76 0.72 0.68 0.68 0.68 0.67 0.65 0.65 0.66 0.69 0.73 0.75 0.71 0.67 0.69 0.71 0.71 0.74 0.79 0.88 0.88 0.82 0.83 0.86 0.88 0.85 0.71 0.58 0.64 0.75 0.74 0.79 0.77 0.75 0.74 0.78
0.79 0.78 0.76 0.74 0.73 0.74 0.73 0.72 0.69 0.66 0.65 0.63 0.61 0.57 0.56 0.57 0.59 0.62 0.65 0.68 0.70 0.70 0.69 0.72 0.77 0.75 0.87 0.93 0.94 0.92 0.89 0.82 0.70 0.68 0.60 0.60 0.62 0.68 0.68 0.71 0.72 0.71 0.72
Wind_Speed
11 12 10 9 8 7 6 6 6 5 5 5 5 5 6 7 9 9 9 8 8 7 6 5 5 5 5 5 5 5 7 7 8 8 8 9 9 9 10 9 9 10 8
13 12 11 10 9 8 7 6 6 6 6 6 6 6 7 8 8 8 8 8 8 7 7 6 5 5 5 5 6 6 7 8 8 8 9 9 9 9 10 10 9 9 9
14 13 12 10 9 8 8 7 7 7 7 6 6 7 7 7 7 7 8 7 7 7 7 7 6 6 6 6 6 7 7 8 8 8 9 9 9 10 10 10 9 9 9
15 13 12 11 10 9 8 8 7 7 7 6 6 6 6 7 7 7 7 7 8 8 7 7 7 6 6 6 6 7 7 8 9 9 9 10 9 10 10 11 9 9 9
16 14 12 11 11 10 8 8 7 7 7 6 6 6 6 6 6 6 6 7 7 8 8 7 7 7 6 7 7 7 7 7 9 10 10 10 10 10 9 10 10 10 11
17 15 13 12 11 10 9 8 8 6 5 5 6 6 6 6 6 5 6 6 7 7 7 7 7 6 6 6 7 7 8 8 9 10 10 10 11 10 10 11 11 12 12
19 17 15 13 12 11 10 9 7 6 4 4 4 5 5 5 5 4 5 5 5 6 6 6 6 5 6 6 7 7 8 8 10 10 10 11 11 11 11 12 13 13 14
20 18 16 14 13 12 11 10 8 6 4 2 3 3 3 3 3 2 3 3 3 4 4 5 5 5 5 6 7 8 8 9 10 11 11 12 12 12 12 13 13 14 14
21 19 18 16 14 13 12 11 9 7 5 3 3 3 1 1 1 1 2 2 2 3 3 4 4 5 5 6 7 8 9 10 11 12 13 13 13 13 12 14 14 15 15
22 21 19 17 16 15 14 13 10 8 7 6 5 5 4 4 3 3 3 3 3 4 4 5 6 6 7 8 9 10 11 12 13 14 14 14 14 14 13 15 15 16 16
22 22 21 19 17 17 15 14 12 10 9 8 7 7 7 7 6 6 6 6 6 6 6 7 8 8 9 10 11 12 13 14 15 15 16 16 16 16 15 16 17 17 17
23 23 22 20 19 18 17 15 14 12 11 10 9 9 9 9 9 8 8 8 8 9 9 9 10 10 11 12 13 14 15 16 17 17 18 18 18 18 17 18 18 19 19
23 22 22 21 20 19 18 17 15 14 12 12 11 11 11 11 10 10 10 11 11 11 11 12 12 13 14 14 15 17 18 18 19 19 20 20 20 20 19 20 21 21 21
25 24 23 22 21 20 19 18 17 15 14 13 13 12 12 12 12 12 12 13 13 13 13 14 15 15 16 17 18 19 20 20 21 21 22 22 22 22 22 22 22 22 22
23 23 23 22 21 21 20 18 17 16 15 15 14 14 14 14 14 14 14 14 14 15 15 16 16 17 18 19 20 21 21 22 23 23 24 24 24 24 24 24 24 23 23
23 23 22 21 21 20 19 19 18 17 16 16 16 16 16 15 15 15 15 16 17 17 17 18 18 19 20 21 22 22 23 24 24 25 25 25 25 25 26 25 25 25 24
24 23 23 22 21 20 19 19 19 18 17 17 17 17 17 17 17 17 18 18 19 19 19 20 21 22 23 23 24 25 26 27 27 27 27 26 26 27 27 27 27 27 27
26 25 24 23 22 22 21 20 20 19 19 19 19 19 19 19 19 20 20 20 21 21 22 23 23 24 25 26 27 28 29 29 30 29 29 29 28 28 28 28 28 29 29
28 26 26 25 24 23 23 22 22 22 22 22 22 21 21 22 22 22 23 23 24 24 25 26 26 27 28 29 30 30 31 32 32 32 32 32 31 31 31 31 31 31 31
28 26 26 27 26 25 24 24 24 24 24 24 24 24 24 24 24 25 25 26 27 27 28 28 29 30 30 31 32 32 33 34 34 33 33 33 32 32 32 32 32 32 32
29 28 27 27 27 27 26 26 25 25 25 26 26 26 27 27 27 28 28 28 29 29 30 30 31 31 31 32 33 33 33 33 33 31 31 31 31 31 31 31 32 33 33
29 29 29 29 28 28 27 27 26 26 26 26 27 28 28 29 30 30 31 31 31 31 32 32 32 32 32 32 32 32 32 30 30 29 29 30 30 30 31 32 32 32 32
30 30 29 28 29 29 29 29 28 28 27 27 27 28 28 29 30 31 32 32 33 33 33 34 33 33 33 32 32 32 30 29 29 29 28 28 29 28 28 29 30 31 32
29 29 29 29 28 28 28 28 29 28 28 28 28 29 30 30 31 31 32 32 33 33 34 33 33 33 33 32 32 31 31 30 28 29 28 27 27 28 28 30 31 31 32
30 29 28 27 28 28 28 28 29 29 29 30 30 30 30 30 30 31 31 32 32 33 33 32 33 33 33 32 31 30 29 29 29 30 29 28 28 28 29 29 29 30 30
29 28 27 26 26 27 28 28 29 30 30 31 31 30 30 30 30 30 30 30 31 31 31 32 32 32 32 32 31 29 28 27 28 28 29 28 28 27 27 28 28 28 29
Wind_Direction
176 169 164 158 150 143 140 137 132 124 111 101 92 86 82 87 89 89 83 75 71 68 70 75 73 68 60 43 33 26 18 15 14 17 18 17 15 12 10 9 8 3 360
170 168 167 162 154 144 135 132 129 124 112 99 93 91 91 95 92 86 79 72 67 66 68 70 70 67 58 52 42 31 25 23 23 22 19 16 13 11 10 8 6 6 7
174 169 169 167 161 152 141 132 124 119 111 100 95 94 95 98 93 84 76 67 63 64 66 67 67 66 61 53 42 34 29 29 24 19 15 11 9 7 7 3 2 2 360
177 173 171 170 166 158 149 141 128 117 110 99 96 95 95 98 92 83 74 66 63 65 67 64 64 62 58 50 40 33 29 26 20 16 13 9 7 7 6 8 3 1 359
183 179 176 172 169 164 157 149 138 123 108 97 97 95 93 97 90 81 74 65 64 65 64 62 62 61 55 47 38 29 24 18 14 12 9 8 6 1 3 1 0 353 346
189 186 182 179 174 171 166 159 151 138 116 96 97 95 95 94 90 81 69 64 64 63 60 58 57 55 48 40 31 27 24 19 11 7 4 1 1 358 353 349 345 340 335
193 192 189 186 185 182 178 173 166 158 140 112 109 93 99 94 88 73 66 61 61 58 54 52 47 43 38 30 22 16 12 7 2 359 356 353 350 348 347 343 340 336 332
197 196 195 194 194 193 190 186 184 182 177 160 143 126 100 82 69 55 47 45 46 42 39 35 30 24 16 10 6 2 357 354 352 349 347 343 339 337 337 338 337 335 334
201 201 201 202 202 201 200 199 200 202 209 212 209 208 232 296 330 340 358 7 7 4 2 358 353 349 345 344 344 344 341 340 339 338 337 335 333 330 330 333 332 333 331
205 206 207 210 209 208 207 209 212 218 225 230 235 244 258 271 281 287 294 305 316 324 327 326 324 322 323 324 325 327 328 328 328 328 328 328 325 324 322 327 329 329 327
209 212 211 212 213 213 214 217 221 227 233 239 246 253 263 271 275 277 281 285 291 300 307 311 311 311 312 314 315 315 316 318 319 319 320 321 319 316 313 317 320 323 323
211 212 214 216 217 217 219 223 226 232 239 245 251 258 264 270 271 274 276 279 284 287 295 300 303 305 307 308 309 311 311 311 312 312 313 314 313 310 306 308 312 314 316
213 214 216 218 219 221 223 225 229 235 242 247 253 260 266 269 271 272 275 277 279 283 288 293 297 300 302 305 306 307 307 307 307 308 308 308 308 307 302 304 306 307 309
216 217 220 221 222 224 225 226 230 237 243 248 254 261 265 268 270 271 273 275 277 281 286 290 293 296 299 302 303 304 305 304 304 304 305 304 303 302 301 301 303 303 304
215 216 218 220 221 222 223 227 232 238 244 250 255 260 265 268 270 272 273 275 277 281 284 289 292 295 298 301 302 304 304 304 303 303 302 301 300 298 298 298 299 300 300
216 215 215 217 218 220 224 229 234 240 246 252 257 261 264 267 269 273 275 276 278 281 283 287 290 293 296 299 301 302 302 302 302 302 301 300 298 297 296 296 296 296 296
218 217 217 219 220 224 227 232 237 242 248 253 258 262 265 266 269 272 275 277 279 281 284 286 289 291 294 296 298 300 301 301 300 299 299 298 298 296 295 294 294 293 294
223 220 221 223 225 228 233 237 241 246 251 256 260 263 265 267 269 272 275 277 279 281 283 285 288 290 292 294 296 298 299 299 298 297 296 295 295 295 295 294 293 292 291
226 226 225 227 230 233 238 242 245 250 254 258 261 264 267 268 270 272 275 277 279 281 283 285 287 289 291 292 294 296 297 297 296 294 293 292 291 292 292 293 291 290 289
227 229 230 230 233 237 241 245 250 253 256 259 262 265 267 270 271 273 275 277 278 281 283 285 287 289 290 292 294 295 296 296 295 293 292 290 289 289 290 291 291 290 288
230 230 232 234 237 240 244 248 251 255 258 261 263 266 268 270 272 274 275 277 279 280 282 284 287 288 289 291 294 295 295 295 294 294 294 292 291 290 290 290 290 290 289
232 234 236 238 240 243 246 249 252 256 259 262 265 267 269 271 273 274 275 277 278 280 282 283 285 287 288 290 293 296 297 296 295 294 295 295 294 292 291 291 291 291 290
235 237 239 240 242 245 248 250 254 257 260 263 266 268 271 273 275 275 276 277 279 280 281 283 283 284 287 289 290 293 296 296 297 296 295 295 295 295 295 295 294 294 291
235 238 240 241 243 246 248 250 254 257 260 263 266 269 272 274 276 276 277 278 279 281 282 282 282 283 285 287 290 289 291 293 296 298 298 297 297 297 297 297 297 296 295
237 239 240 241 244 246 249 252 255 258 261 264 267 271 273 275 276 277 279 280 281 281 282 282 282 283 284 286 287 290 289 290 292 294 297 297 297 298 299 300 299 298 299
234 236 238 241 244 247 251 254 257 260 263 266 268 271 273 274 276 278 280 282 282 282 282 283 283 283 283 283 285 285 287 291 294 294 296 296 297 301 302 302 302 302 302